Year,Month,Day,Hour,Minute,Value (Times are PST for temperature in C)
2009,03,16,00,00,3.20
2009,03,16,00,01,3.20
2009,03,16,00,02,3.20
2009,03,16,00,03,3.20
2009,03,16,00,04,3.30
2009,03,16,00,05,3.30
2009,03,16,00,06,3.30
2009,03,16,00,07,3.30
2009,03,16,00,08,3.30
2009,03,16,00,09,3.30
2009,03,16,00,10,3.30
2009,03,16,00,11,3.40
2009,03,16,00,12,3.40
2009,03,16,00,13,3.50
2009,03,16,01,02,3.80
2009,03,16,01,03,3.80
2009,03,16,01,04,3.80
2009,03,16,01,05,3.90
2009,03,16,01,06,3.90
2009,03,16,01,07,4.00
2009,03,16,01,08,4.00
2009,03,16,01,09,4.00
2009,03,16,01,10,4.10
2009,03,16,01,11,4.10
2009,03,16,01,12,4.00
2009,03,16,01,13,4.00
2009,03,16,01,14,4.00
2009,03,16,01,15,4.00
2009,03,16,01,16,3.90
2009,03,16,01,17,3.80
2009,03,16,01,18,3.80
2009,03,16,01,19,3.70
2009,03,16,01,20,3.70
2009,03,16,01,21,3.60
2009,03,16,01,22,3.60
2009,03,16,01,23,3.50
2009,03,16,01,24,3.50
2009,03,16,01,25,3.40
2009,03,16,01,26,3.40
2009,03,16,01,27,3.40
2009,03,16,01,28,3.40
2009,03,16,01,29,3.40
2009,03,16,01,30,3.40
2009,03,16,01,31,3.40
2009,03,16,01,32,3.40
2009,03,16,01,33,3.40
2009,03,16,01,34,3.40
2009,03,16,01,35,3.30
2009,03,16,01,36,3.30
2009,03,16,01,37,3.30
2009,03,16,01,38,3.30
2009,03,16,01,39,3.30
2009,03,16,01,40,3.20
2009,03,16,01,41,3.20
2009,03,16,01,42,3.20
2009,03,16,01,43,3.10
2009,03,16,01,44,3.10
2009,03,16,01,45,3.10
2009,03,16,01,46,3.00
2009,03,16,01,47,2.90
2009,03,16,01,48,2.90
2009,03,16,01,49,2.80
2009,03,16,01,50,2.80
2009,03,16,01,51,2.70
2009,03,16,01,52,2.70
2009,03,16,01,53,2.70
2009,03,16,01,54,2.60
2009,03,16,01,55,2.60
2009,03,16,01,56,2.50
2009,03,16,01,57,2.50
2009,03,16,01,58,2.50
2009,03,16,01,59,2.40
2009,03,16,02,00,2.40
2009,03,16,02,01,2.40
2009,03,16,02,02,2.40
2009,03,16,02,03,2.40
2009,03,16,02,04,2.40
2009,03,16,02,05,2.40
2009,03,16,02,06,2.40
2009,03,16,02,07,2.40
2009,03,16,02,08,2.50
2009,03,16,02,09,2.50
2009,03,16,02,10,2.60
2009,03,16,02,11,2.70
2009,03,16,02,12,2.70
2009,03,16,02,13,2.80
2009,03,16,02,14,2.80
2009,03,16,02,15,2.80
2009,03,16,02,16,2.80
2009,03,16,02,17,2.80
2009,03,16,02,18,2.80
2009,03,16,02,19,2.90
2009,03,16,02,20,2.80
2009,03,16,02,21,2.80
2009,03,16,02,22,2.80
2009,03,16,02,23,2.80
2009,03,16,02,24,2.70
2009,03,16,02,25,2.70
2009,03,16,02,26,2.70
2009,03,16,02,27,2.70
2009,03,16,02,28,2.70
2009,03,16,02,29,2.70
2009,03,16,02,30,2.60
2009,03,16,02,31,2.60
2009,03,16,02,32,2.60
2009,03,16,02,33,2.50
2009,03,16,02,34,2.50
2009,03,16,02,35,2.50
2009,03,16,02,36,2.40
2009,03,16,02,37,2.40
2009,03,16,02,38,2.40
2009,03,16,02,39,2.30
2009,03,16,02,40,2.20
2009,03,16,02,41,2.20
2009,03,16,02,42,2.20
2009,03,16,02,43,2.20
2009,03,16,02,44,2.10
2009,03,16,02,45,2.10
2009,03,16,02,46,2.00
2009,03,16,02,47,2.00
2009,03,16,02,48,1.90
2009,03,16,02,49,1.80
2009,03,16,02,50,1.80
2009,03,16,02,51,1.70
2009,03,16,02,52,1.70
2009,03,16,02,53,1.60
2009,03,16,02,54,1.60
2009,03,16,02,55,1.50
2009,03,16,02,56,1.50
2009,03,16,02,57,1.40
2009,03,16,02,58,1.40
2009,03,16,02,59,1.30
2009,03,16,03,00,1.30
2009,03,16,03,01,1.30
2009,03,16,03,02,1.30
2009,03,16,03,03,1.30
2009,03,16,03,04,1.20
2009,03,16,03,05,1.20
2009,03,16,03,06,1.20
2009,03,16,03,07,1.20
2009,03,16,03,08,1.20
2009,03,16,03,09,1.20
2009,03,16,03,10,1.20
2009,03,16,03,11,1.30
2009,03,16,03,12,1.30
2009,03,16,03,13,1.40
2009,03,16,03,14,1.50
2009,03,16,03,15,1.50
2009,03,16,03,16,1.60
2009,03,16,03,17,1.70
2009,03,16,03,18,1.90
2009,03,16,03,19,2.00
2009,03,16,03,20,2.00
2009,03,16,03,21,2.10
2009,03,16,03,22,2.20
2009,03,16,03,23,2.20
2009,03,16,03,24,2.20
2009,03,16,03,25,2.30
2009,03,16,03,26,2.40
2009,03,16,03,27,2.40
2009,03,16,03,28,2.40
2009,03,16,03,29,2.40
2009,03,16,03,30,2.40
2009,03,16,03,31,2.40
2009,03,16,03,32,2.40
2009,03,16,03,33,2.30
2009,03,16,03,34,2.30
2009,03,16,03,35,2.30
2009,03,16,03,36,2.30
2009,03,16,03,37,2.30
2009,03,16,03,38,2.20
2009,03,16,03,39,2.20
2009,03,16,03,40,2.20
2009,03,16,03,41,2.20
2009,03,16,03,42,2.20
2009,03,16,03,43,2.20
2009,03,16,03,44,2.10
2009,03,16,03,45,2.10
2009,03,16,03,46,2.10
2009,03,16,03,47,2.00
2009,03,16,03,48,2.00
2009,03,16,03,49,2.00
2009,03,16,03,50,2.00
2009,03,16,03,51,1.90
2009,03,16,03,52,1.90
2009,03,16,03,53,1.80
2009,03,16,03,54,1.80
2009,03,16,03,55,1.80
2009,03,16,03,56,1.80
2009,03,16,03,57,1.70
2009,03,16,03,58,1.70
2009,03,16,03,59,1.60
2009,03,16,04,00,1.60
2009,03,16,04,01,1.60
2009,03,16,04,02,1.50
2009,03,16,04,03,1.50
2009,03,16,04,04,1.50
2009,03,16,04,05,1.50
2009,03,16,04,06,1.40
2009,03,16,04,07,1.40
2009,03,16,04,08,1.40
2009,03,16,04,09,1.40
2009,03,16,04,10,1.40
2009,03,16,04,11,1.40
2009,03,16,04,12,1.40
2009,03,16,04,13,1.40
2009,03,16,04,14,1.50
2009,03,16,04,15,1.50
2009,03,16,04,16,1.50
2009,03,16,04,17,1.50
2009,03,16,04,18,1.60
2009,03,16,04,19,1.60
2009,03,16,04,20,1.70
2009,03,16,04,21,1.70
2009,03,16,04,22,1.70
2009,03,16,04,23,1.80
2009,03,16,04,24,1.80
2009,03,16,04,25,1.80
2009,03,16,04,26,1.80
2009,03,16,04,27,1.90
2009,03,16,04,28,1.90
2009,03,16,04,29,1.90
2009,03,16,04,30,1.90
2009,03,16,04,31,1.90
2009,03,16,04,32,1.90
2009,03,16,04,33,1.90
2009,03,16,04,34,1.90
2009,03,16,04,35,1.90
2009,03,16,04,36,1.90
2009,03,16,04,37,1.90
2009,03,16,04,38,1.90
2009,03,16,04,39,1.90
2009,03,16,04,40,1.80
2009,03,16,04,41,1.80
2009,03,16,04,42,1.80
2009,03,16,04,43,1.80
2009,03,16,04,44,1.80
2009,03,16,04,45,1.80
2009,03,16,04,46,1.80
2009,03,16,04,47,1.80
2009,03,16,04,48,1.70
2009,03,16,04,49,1.70
2009,03,16,04,50,1.70
2009,03,16,04,51,1.60
2009,03,16,04,52,1.60
2009,03,16,04,53,1.60
2009,03,16,04,54,1.60
2009,03,16,04,55,1.60
2009,03,16,04,56,1.60
2009,03,16,04,57,1.60
2009,03,16,04,58,1.60
2009,03,16,04,59,1.60
2009,03,16,05,00,1.60
2009,03,16,05,01,1.60
2009,03,16,05,02,1.60
2009,03,16,05,03,1.60
2009,03,16,05,04,1.60
2009,03,16,05,05,1.60
2009,03,16,05,06,1.60
2009,03,16,05,07,1.60
2009,03,16,05,08,1.60
2009,03,16,05,09,1.60
2009,03,16,05,10,1.60
2009,03,16,05,11,1.60
2009,03,16,05,12,1.60
2009,03,16,05,13,1.60
2009,03,16,05,14,1.60
2009,03,16,05,15,1.60
2009,03,16,05,16,1.60
2009,03,16,05,17,1.60
2009,03,16,05,18,1.60
2009,03,16,05,19,1.60
2009,03,16,05,20,1.60
2009,03,16,05,21,1.60
2009,03,16,05,22,1.60
2009,03,16,05,23,1.60
2009,03,16,05,24,1.60
2009,03,16,05,25,1.60
2009,03,16,05,26,1.60
2009,03,16,05,27,1.70
2009,03,16,05,28,1.70
2009,03,16,05,29,1.80
2009,03,16,05,30,1.80
2009,03,16,05,31,1.80
2009,03,16,05,32,1.80
2009,03,16,05,33,1.80
2009,03,16,05,34,1.80
2009,03,16,05,35,1.80
2009,03,16,05,36,1.80
2009,03,16,05,37,1.80
2009,03,16,05,38,1.80
2009,03,16,05,39,1.80
2009,03,16,05,40,1.80
2009,03,16,05,41,1.80
2009,03,16,05,42,1.80
2009,03,16,05,43,1.90
2009,03,16,05,44,1.90
2009,03,16,05,45,1.90
2009,03,16,05,46,1.90
2009,03,16,05,47,1.90
2009,03,16,05,48,1.90
2009,03,16,05,49,2.00
2009,03,16,05,50,2.00
2009,03,16,05,51,2.00
2009,03,16,05,52,2.00
2009,03,16,05,53,2.10
2009,03,16,05,54,2.10
2009,03,16,05,55,2.10
2009,03,16,05,56,2.10
2009,03,16,05,57,2.10
2009,03,16,05,58,2.10
2009,03,16,05,59,2.10
2009,03,16,06,00,2.10
2009,03,16,06,01,2.20
2009,03,16,06,02,2.20
2009,03,16,06,03,2.20
2009,03,16,06,04,2.20
2009,03,16,06,05,2.20
2009,03,16,06,06,2.20
2009,03,16,06,07,2.20
2009,03,16,06,08,2.20
2009,03,16,06,09,2.20
2009,03,16,06,10,2.20
2009,03,16,06,11,2.20
2009,03,16,06,12,2.20
2009,03,16,06,13,2.20
2009,03,16,06,14,2.20
2009,03,16,06,15,2.20
2009,03,16,06,16,2.20
2009,03,16,06,17,2.20
2009,03,16,06,18,2.20
2009,03,16,06,19,2.20
2009,03,16,06,20,2.20
2009,03,16,06,21,2.20
2009,03,16,06,22,2.20
2009,03,16,06,23,2.20
2009,03,16,06,24,2.20
2009,03,16,06,25,2.20
2009,03,16,06,26,2.20
2009,03,16,06,27,2.20
2009,03,16,06,28,2.20
2009,03,16,06,29,2.20
2009,03,16,06,30,2.20
2009,03,16,06,31,2.20
2009,03,16,06,32,2.20
2009,03,16,06,33,2.20
2009,03,16,06,34,2.10
2009,03,16,06,35,2.10
2009,03,16,06,36,2.10
2009,03,16,06,37,2.10
2009,03,16,06,38,2.00
2009,03,16,06,39,2.00
2009,03,16,06,40,2.00
2009,03,16,06,41,1.90
2009,03,16,06,42,1.90
2009,03,16,06,43,1.90
2009,03,16,06,44,1.80
2009,03,16,06,45,1.80
2009,03,16,06,46,1.80
2009,03,16,06,47,1.80
2009,03,16,06,48,1.70
2009,03,16,06,49,1.70
2009,03,16,06,50,1.70
2009,03,16,06,51,1.70
2009,03,16,06,52,1.70
2009,03,16,06,53,1.80
2009,03,16,06,54,1.80
2009,03,16,06,55,1.80
2009,03,16,06,56,1.80
2009,03,16,06,57,1.80
2009,03,16,06,58,1.80
2009,03,16,06,59,1.80
2009,03,16,07,00,1.80
2009,03,16,07,01,1.80
2009,03,16,07,02,1.80
2009,03,16,07,03,1.80
2009,03,16,07,04,1.80
2009,03,16,07,05,1.80
2009,03,16,07,06,1.80
2009,03,16,07,07,1.80
2009,03,16,07,08,1.80
2009,03,16,07,09,1.80
2009,03,16,07,10,1.80
2009,03,16,07,11,1.80
2009,03,16,07,12,1.80
2009,03,16,07,13,1.80
2009,03,16,07,14,1.80
2009,03,16,07,15,1.80
2009,03,16,07,16,1.80
2009,03,16,07,17,1.80
2009,03,16,07,18,1.80
2009,03,16,07,19,1.80
2009,03,16,07,20,1.80
2009,03,16,07,21,1.80
2009,03,16,07,22,1.80
2009,03,16,07,23,1.80
2009,03,16,07,24,1.80
2009,03,16,07,25,1.80
2009,03,16,07,26,1.80
2009,03,16,07,27,1.80
2009,03,16,07,28,1.80
2009,03,16,07,29,1.80
2009,03,16,07,30,1.80
2009,03,16,07,31,1.80
2009,03,16,07,32,1.80
2009,03,16,07,33,1.80
2009,03,16,07,34,1.80
2009,03,16,07,35,1.80
2009,03,16,07,36,1.80
2009,03,16,07,37,1.80
2009,03,16,07,38,1.80
2009,03,16,07,39,1.80
2009,03,16,07,40,1.80
2009,03,16,07,41,1.80
2009,03,16,07,42,1.80
2009,03,16,07,43,1.80
2009,03,16,07,44,1.80
2009,03,16,07,45,1.80
2009,03,16,07,46,1.80
2009,03,16,07,47,1.80
2009,03,16,07,48,1.80
2009,03,16,07,49,1.80
2009,03,16,07,50,1.80
2009,03,16,07,51,1.80
2009,03,16,07,52,1.80
2009,03,16,07,53,1.80
2009,03,16,07,54,1.80
2009,03,16,07,55,1.80
2009,03,16,07,56,1.80
2009,03,16,07,57,1.80
2009,03,16,07,58,1.80
2009,03,16,07,59,1.80
2009,03,16,08,00,1.80
2009,03,16,08,01,1.70
2009,03,16,08,02,1.70
2009,03,16,08,03,1.70
2009,03,16,08,04,1.70
2009,03,16,08,05,1.70
2009,03,16,08,06,1.70
2009,03,16,08,07,1.70
2009,03,16,08,08,1.70
2009,03,16,08,09,1.70
2009,03,16,08,10,1.70
2009,03,16,08,11,1.80
2009,03,16,08,12,1.80
2009,03,16,08,13,1.80
2009,03,16,08,14,1.80
2009,03,16,08,15,1.80
2009,03,16,08,16,1.80
2009,03,16,08,17,1.90
2009,03,16,08,18,1.90
2009,03,16,08,19,1.90
2009,03,16,08,20,1.90
2009,03,16,08,21,1.90
2009,03,16,08,22,1.90
2009,03,16,08,23,1.90
2009,03,16,08,24,1.90
2009,03,16,08,25,1.90
2009,03,16,08,26,1.90
2009,03,16,08,27,1.90
2009,03,16,08,28,1.90
2009,03,16,08,29,1.90
2009,03,16,08,30,2.00
2009,03,16,08,31,2.00
2009,03,16,08,32,2.00
2009,03,16,08,33,2.10
2009,03,16,08,34,2.10
2009,03,16,08,35,2.10
2009,03,16,08,36,2.10
2009,03,16,08,37,2.20
2009,03,16,08,38,2.20
2009,03,16,08,39,2.20
2009,03,16,08,40,2.20
2009,03,16,08,41,2.20
2009,03,16,08,42,2.20
2009,03,16,08,43,2.20
2009,03,16,08,44,2.20
2009,03,16,08,45,2.20
2009,03,16,08,46,2.20
2009,03,16,08,47,2.30
2009,03,16,08,48,2.30
2009,03,16,08,49,2.30
2009,03,16,08,50,2.30
2009,03,16,08,51,2.40
2009,03,16,08,52,2.40
2009,03,16,08,53,2.50
2009,03,16,08,54,2.50
2009,03,16,08,55,2.60
2009,03,16,08,56,2.60
2009,03,16,08,57,2.60
2009,03,16,08,58,2.60
2009,03,16,08,59,2.70
2009,03,16,09,00,2.70
2009,03,16,09,01,2.70
2009,03,16,09,02,2.70
2009,03,16,09,03,2.70
2009,03,16,09,04,2.70
2009,03,16,09,05,2.80
2009,03,16,09,06,2.80
2009,03,16,09,07,2.80
2009,03,16,09,08,2.80
2009,03,16,09,09,2.90
2009,03,16,09,10,2.90
2009,03,16,09,11,2.90
2009,03,16,09,12,2.90
2009,03,16,09,13,2.90
2009,03,16,09,14,2.90
2009,03,16,09,15,2.90
2009,03,16,09,16,2.90
2009,03,16,09,17,2.90
2009,03,16,09,18,2.90
2009,03,16,09,19,2.90
2009,03,16,09,20,2.90
2009,03,16,09,21,2.90
2009,03,16,09,22,2.90
2009,03,16,09,23,2.90
2009,03,16,09,24,2.90
2009,03,16,09,25,2.90
2009,03,16,09,26,2.90
2009,03,16,09,27,2.90
2009,03,16,09,28,2.90
2009,03,16,09,29,2.90
2009,03,16,09,30,2.90
2009,03,16,09,31,2.90
2009,03,16,09,32,2.90
2009,03,16,09,33,2.90
2009,03,16,09,34,2.90
2009,03,16,09,35,2.90
2009,03,16,09,36,2.90
2009,03,16,09,37,2.90
2009,03,16,09,38,2.90
2009,03,16,09,39,2.90
2009,03,16,09,40,2.90
2009,03,16,09,41,2.90
2009,03,16,09,42,2.90
2009,03,16,09,43,2.90
2009,03,16,09,44,2.90
2009,03,16,09,45,3.00
2009,03,16,09,46,3.10
2009,03,16,09,47,3.10
2009,03,16,09,48,3.10
2009,03,16,09,49,3.10
2009,03,16,09,50,3.10
2009,03,16,09,51,3.10
2009,03,16,09,52,3.10
2009,03,16,09,53,3.10
2009,03,16,09,54,3.10
2009,03,16,09,55,3.20
2009,03,16,09,56,3.20
2009,03,16,09,57,3.20
2009,03,16,09,58,3.30
2009,03,16,09,59,3.30
2009,03,16,10,00,3.30
2009,03,16,10,01,3.30
2009,03,16,10,02,3.30
2009,03,16,10,03,3.30
2009,03,16,10,04,3.30
2009,03,16,10,05,3.40
2009,03,16,10,06,3.40
2009,03,16,10,07,3.40
2009,03,16,10,08,3.40
2009,03,16,10,09,3.50
2009,03,16,10,10,3.50
2009,03,16,10,11,3.50
2009,03,16,10,12,3.50
2009,03,16,10,13,3.60
2009,03,16,10,14,3.60
2009,03,16,10,15,3.60
2009,03,16,10,16,3.60
2009,03,16,10,17,3.70
2009,03,16,10,18,3.70
2009,03,16,10,19,3.70
2009,03,16,10,20,3.80
2009,03,16,10,21,3.80
2009,03,16,10,22,3.80
2009,03,16,10,23,3.80
2009,03,16,10,24,3.80
2009,03,16,10,25,3.80
2009,03,16,10,26,3.90
2009,03,16,10,27,3.90
2009,03,16,10,28,3.90
2009,03,16,10,29,3.90
2009,03,16,10,30,4.00
2009,03,16,10,31,4.00
2009,03,16,10,32,4.00
2009,03,16,10,33,4.00
2009,03,16,10,34,4.00
2009,03,16,10,35,4.10
2009,03,16,10,36,4.10
2009,03,16,10,37,4.10
2009,03,16,10,38,4.10
2009,03,16,10,39,4.20
2009,03,16,10,40,4.20
2009,03,16,10,41,4.20
2009,03,16,10,42,4.20
2009,03,16,10,43,4.20
2009,03,16,10,44,4.30
2009,03,16,10,45,4.30
2009,03,16,10,46,4.30
2009,03,16,10,47,4.30
2009,03,16,10,48,4.40
2009,03,16,10,49,4.40
2009,03,16,10,50,4.40
2009,03,16,10,51,4.50
2009,03,16,10,52,4.50
2009,03,16,10,53,4.50
2009,03,16,10,54,4.60
2009,03,16,10,55,4.60
2009,03,16,10,56,4.60
2009,03,16,10,57,4.60
2009,03,16,10,58,4.70
2009,03,16,10,59,4.70
2009,03,16,11,00,4.70
2009,03,16,11,01,4.80
2009,03,16,11,02,4.80
2009,03,16,11,03,4.80
2009,03,16,11,04,4.80
2009,03,16,11,05,4.80
2009,03,16,11,06,4.80
2009,03,16,11,07,4.80
2009,03,16,11,08,4.80
2009,03,16,11,09,4.80
2009,03,16,11,10,4.80
2009,03,16,11,11,4.80
2009,03,16,11,12,4.70
2009,03,16,11,13,4.70
2009,03,16,11,14,4.60
2009,03,16,11,15,4.60
2009,03,16,11,16,4.60
2009,03,16,11,17,4.60
2009,03,16,11,18,4.60
2009,03,16,11,19,4.60
2009,03,16,11,20,4.60
2009,03,16,11,21,4.60
2009,03,16,11,22,4.60
2009,03,16,11,23,4.60
2009,03,16,11,24,4.60
2009,03,16,11,25,4.70
2009,03,16,11,26,4.70
2009,03,16,11,27,4.60
2009,03,16,11,28,4.60
2009,03,16,11,29,4.60
2009,03,16,11,30,4.60
2009,03,16,11,31,4.60
2009,03,16,11,32,4.70
2009,03,16,11,33,4.70
2009,03,16,11,34,4.70
2009,03,16,11,35,4.70
2009,03,16,11,36,4.70
2009,03,16,11,37,4.70
2009,03,16,11,38,4.70
2009,03,16,11,39,4.80
2009,03,16,11,40,4.80
2009,03,16,11,41,4.80
2009,03,16,11,42,4.80
2009,03,16,11,43,4.80
2009,03,16,11,44,4.80
2009,03,16,11,45,4.80
2009,03,16,11,46,4.80
2009,03,16,11,47,4.80
2009,03,16,11,48,4.80
2009,03,16,11,49,4.90
2009,03,16,11,50,4.90
2009,03,16,11,51,4.90
2009,03,16,11,52,4.90
2009,03,16,11,53,4.90
2009,03,16,11,54,4.90
2009,03,16,11,55,4.90
2009,03,16,11,56,4.90
2009,03,16,11,57,5.00
2009,03,16,11,58,5.10
2009,03,16,11,59,5.10
2009,03,16,12,00,5.10
2009,03,16,12,01,5.10
2009,03,16,12,02,5.10
2009,03,16,12,03,5.10
2009,03,16,12,04,5.10
2009,03,16,12,05,5.20
2009,03,16,12,06,5.20
2009,03,16,12,07,5.20
2009,03,16,12,08,5.30
2009,03,16,12,09,5.30
2009,03,16,12,10,5.30
2009,03,16,12,11,5.40
2009,03,16,12,12,5.50
2009,03,16,12,13,5.50
2009,03,16,12,14,5.60
2009,03,16,12,15,5.70
2009,03,16,12,16,5.80
2009,03,16,12,17,5.80
2009,03,16,12,18,5.90
2009,03,16,12,19,5.90
2009,03,16,12,20,6.00
2009,03,16,12,21,6.00
2009,03,16,12,22,6.10
2009,03,16,12,23,6.20
2009,03,16,12,24,6.30
2009,03,16,12,25,6.40
2009,03,16,12,26,6.50
2009,03,16,12,27,6.60
2009,03,16,12,28,6.80
2009,03,16,12,29,6.80
2009,03,16,12,30,6.90
2009,03,16,12,31,7.00
2009,03,16,12,32,7.00
2009,03,16,12,33,7.10
2009,03,16,12,34,7.10
2009,03,16,12,35,7.20
2009,03,16,12,36,7.30
2009,03,16,12,37,7.30
2009,03,16,12,38,7.40
2009,03,16,12,39,7.40
2009,03,16,12,40,7.50
2009,03,16,12,41,7.50
2009,03,16,12,42,7.60
2009,03,16,12,43,7.70
2009,03,16,12,44,7.70
2009,03,16,12,45,7.70
2009,03,16,12,46,7.80
2009,03,16,12,47,7.80
2009,03,16,12,48,7.80
2009,03,16,12,49,7.70
2009,03,16,12,50,7.60
2009,03,16,12,51,7.50
2009,03,16,12,52,7.50
2009,03,16,12,53,7.40
2009,03,16,12,54,7.40
2009,03,16,12,55,7.40
2009,03,16,12,56,7.30
2009,03,16,12,57,7.20
2009,03,16,12,58,7.20
2009,03,16,12,59,7.10
2009,03,16,13,00,7.10
2009,03,16,13,01,7.00
2009,03,16,13,02,7.00
2009,03,16,13,03,7.00
2009,03,16,13,04,7.00
2009,03,16,13,05,6.90
2009,03,16,13,06,6.90
2009,03,16,13,07,6.90
2009,03,16,13,08,6.90
2009,03,16,13,09,6.90
2009,03,16,13,10,6.90
2009,03,16,13,11,6.90
2009,03,16,13,12,7.00
2009,03,16,13,13,7.00
2009,03,16,13,14,7.00
2009,03,16,13,15,7.10
2009,03,16,13,16,7.10
2009,03,16,13,17,7.10
2009,03,16,13,18,7.10
2009,03,16,13,19,7.20
2009,03,16,13,20,7.10
2009,03,16,13,21,7.10
2009,03,16,13,22,7.10
2009,03,16,13,23,7.10
2009,03,16,13,24,7.10
2009,03,16,13,25,7.00
2009,03,16,13,26,7.00
2009,03,16,13,27,6.90
2009,03,16,13,28,6.90
2009,03,16,13,29,6.90
2009,03,16,13,30,6.90
2009,03,16,13,31,6.80
2009,03,16,13,32,6.80
2009,03,16,13,33,6.80
2009,03,16,13,34,6.70
2009,03,16,13,35,6.60
2009,03,16,13,36,6.60
2009,03,16,13,37,6.60
2009,03,16,13,38,6.60
2009,03,16,13,39,6.60
2009,03,16,13,40,6.60
2009,03,16,13,41,6.50
2009,03,16,13,42,6.40
2009,03,16,13,43,6.40
2009,03,16,13,44,6.40
2009,03,16,13,45,6.40
2009,03,16,13,46,6.40
2009,03,16,13,47,6.40
2009,03,16,13,48,6.40
2009,03,16,13,49,6.40
2009,03,16,13,50,6.50
2009,03,16,13,51,6.60
2009,03,16,13,52,6.60
2009,03,16,13,53,6.60
2009,03,16,13,54,6.60
2009,03,16,13,55,6.60
2009,03,16,13,56,6.70
2009,03,16,13,57,6.70
2009,03,16,13,58,6.80
2009,03,16,13,59,6.80
2009,03,16,14,00,6.80
2009,03,16,14,01,6.80
2009,03,16,14,02,6.80
2009,03,16,14,03,6.80
2009,03,16,14,04,6.80
2009,03,16,14,05,6.80
2009,03,16,14,06,6.80
2009,03,16,14,07,6.70
2009,03,16,14,08,6.70
2009,03,16,14,09,6.70
2009,03,16,14,10,6.70
2009,03,16,14,11,6.70
2009,03,16,14,12,6.70
2009,03,16,14,13,6.80
2009,03,16,14,14,6.80
2009,03,16,14,15,6.90
2009,03,16,14,16,7.00
2009,03,16,14,17,7.10
2009,03,16,14,18,7.20
2009,03,16,14,19,7.30
2009,03,16,14,20,7.40
2009,03,16,14,21,7.50
2009,03,16,14,22,7.60
2009,03,16,14,23,7.70
2009,03,16,14,24,7.70
2009,03,16,14,25,7.70
2009,03,16,14,26,7.70
2009,03,16,14,27,7.60
2009,03,16,14,28,7.60
2009,03,16,14,29,7.60
2009,03,16,14,30,7.60
2009,03,16,14,31,7.60
2009,03,16,14,32,7.60
2009,03,16,14,33,7.70
2009,03,16,14,34,7.70
2009,03,16,14,35,7.80
2009,03,16,14,36,7.80
2009,03,16,14,37,7.90
2009,03,16,14,38,8.00
2009,03,16,14,39,8.10
2009,03,16,14,40,8.10
2009,03,16,14,41,8.10
2009,03,16,14,42,8.20
2009,03,16,14,43,8.20
2009,03,16,14,44,8.20
2009,03,16,14,45,8.20
2009,03,16,14,46,8.20
2009,03,16,14,47,8.20
2009,03,16,14,48,8.20
2009,03,16,14,49,8.30
2009,03,16,14,50,8.30
2009,03,16,14,51,8.40
2009,03,16,14,52,8.50
2009,03,16,14,53,8.50
2009,03,16,14,54,8.60
2009,03,16,14,55,8.60
2009,03,16,14,56,8.50
2009,03,16,14,57,8.30
2009,03,16,14,58,8.30
2009,03,16,14,59,8.30
2009,03,16,15,00,8.30
2009,03,16,15,01,8.20
2009,03,16,15,02,8.20
2009,03,16,15,03,8.20
2009,03,16,15,04,8.20
2009,03,16,15,05,8.20
2009,03,16,15,06,8.20
2009,03,16,15,07,8.20
2009,03,16,15,08,8.20
2009,03,16,15,09,8.10
2009,03,16,15,10,8.10
2009,03,16,15,11,8.10
2009,03,16,15,12,8.10
2009,03,16,15,13,8.00
2009,03,16,15,14,8.00
2009,03,16,15,15,8.00
2009,03,16,15,16,7.90
2009,03,16,15,17,7.90
2009,03,16,15,18,7.80
2009,03,16,15,19,7.80
2009,03,16,15,20,7.70
2009,03,16,15,21,7.70
2009,03,16,15,22,7.60
2009,03,16,15,23,7.60
2009,03,16,15,24,7.50
2009,03,16,15,25,7.40
2009,03,16,15,26,7.30
2009,03,16,15,27,7.30
2009,03,16,15,28,7.30
2009,03,16,15,29,7.20
2009,03,16,15,30,7.20
2009,03,16,15,31,7.10
2009,03,16,15,32,7.10
2009,03,16,15,33,7.00
2009,03,16,15,34,7.00
2009,03,16,15,35,6.90
2009,03,16,15,36,6.90
2009,03,16,15,37,7.00
2009,03,16,15,38,7.00
2009,03,16,15,39,7.00
2009,03,16,15,40,7.00
2009,03,16,15,41,7.00
2009,03,16,15,42,7.10
2009,03,16,15,43,7.10
2009,03,16,15,44,7.10
2009,03,16,15,45,7.00
2009,03,16,15,46,7.00
2009,03,16,15,47,7.00
2009,03,16,15,48,7.10
2009,03,16,15,49,7.10
2009,03,16,15,50,7.10
2009,03,16,15,51,7.20
2009,03,16,15,52,7.20
2009,03,16,15,53,7.20
2009,03,16,15,54,7.20
2009,03,16,15,55,7.30
2009,03,16,15,56,7.30
2009,03,16,15,57,7.30
2009,03,16,15,58,7.30
2009,03,16,15,59,7.30
2009,03,16,16,00,7.30
2009,03,16,16,01,7.20
2009,03,16,16,02,7.20
2009,03,16,16,03,7.10
2009,03,16,16,04,7.10
2009,03,16,16,05,7.10
2009,03,16,16,06,7.10
2009,03,16,16,07,7.10
2009,03,16,16,08,7.10
2009,03,16,16,09,7.10
2009,03,16,16,10,7.10
2009,03,16,16,11,7.10
2009,03,16,16,12,7.10
2009,03,16,16,13,7.10
2009,03,16,16,14,7.10
2009,03,16,16,15,7.10
2009,03,16,16,16,7.10
2009,03,16,16,17,7.10
2009,03,16,16,18,7.20
2009,03,16,16,19,7.20
2009,03,16,16,20,7.30
2009,03,16,16,21,7.30
2009,03,16,16,22,7.30
2009,03,16,16,23,7.30
2009,03,16,16,24,7.30
2009,03,16,16,25,7.30
2009,03,16,16,26,7.30
2009,03,16,16,27,7.30
2009,03,16,16,28,7.30
2009,03,16,16,29,7.30
2009,03,16,16,30,7.30
2009,03,16,16,31,7.30
2009,03,16,16,32,7.30
2009,03,16,16,33,7.30
2009,03,16,16,34,7.30
2009,03,16,16,35,7.30
2009,03,16,16,36,7.30
2009,03,16,16,37,7.40
2009,03,16,16,38,7.40
2009,03,16,16,39,7.40
2009,03,16,16,40,7.40
2009,03,16,16,41,7.40
2009,03,16,16,42,7.30
2009,03,16,16,43,7.30
2009,03,16,16,44,7.30
2009,03,16,16,45,7.20
2009,03,16,16,46,7.20
2009,03,16,16,47,7.10
2009,03,16,16,48,7.00
2009,03,16,16,49,6.90
2009,03,16,16,50,6.90
2009,03,16,16,51,6.80
2009,03,16,16,52,6.80
2009,03,16,16,53,6.70
2009,03,16,16,54,6.70
2009,03,16,16,55,6.70
2009,03,16,16,56,6.60
2009,03,16,16,57,6.60
2009,03,16,16,58,6.60
2009,03,16,16,59,6.60
2009,03,16,17,00,6.60
2009,03,16,17,01,6.60
2009,03,16,17,02,6.50
2009,03,16,17,03,6.40
2009,03,16,17,04,6.40
2009,03,16,17,05,6.40
2009,03,16,17,06,6.40
2009,03,16,17,07,6.40
2009,03,16,17,08,6.40
2009,03,16,17,09,6.40
2009,03,16,17,10,6.40
2009,03,16,17,11,6.30
2009,03,16,17,12,6.30
2009,03,16,17,13,6.20
2009,03,16,17,14,6.20
2009,03,16,17,15,6.20
2009,03,16,17,16,6.20
2009,03,16,17,17,6.10
2009,03,16,17,18,6.10
2009,03,16,17,19,6.10
2009,03,16,17,20,6.10
2009,03,16,17,21,6.10
2009,03,16,17,22,6.10
2009,03,16,17,23,6.00
2009,03,16,17,24,6.00
2009,03,16,17,25,6.00
2009,03,16,17,26,6.00
2009,03,16,17,27,5.90
2009,03,16,17,28,5.90
2009,03,16,17,29,5.90
2009,03,16,17,30,5.90
2009,03,16,17,31,5.90
2009,03,16,17,32,5.80
2009,03,16,17,33,5.80
2009,03,16,17,34,5.80
2009,03,16,17,35,5.80
2009,03,16,17,36,5.70
2009,03,16,17,37,5.70
2009,03,16,17,38,5.60
2009,03,16,17,39,5.50
2009,03,16,17,40,5.40
2009,03,16,17,41,5.30
2009,03,16,17,42,5.30
2009,03,16,17,43,5.20
2009,03,16,17,44,5.10
2009,03,16,17,45,5.10
2009,03,16,17,46,5.00
2009,03,16,17,47,4.90
2009,03,16,17,48,4.80
2009,03,16,17,49,4.80
2009,03,16,17,50,4.80
2009,03,16,17,51,4.60
2009,03,16,17,52,4.60
2009,03,16,17,53,4.60
2009,03,16,17,54,4.60
2009,03,16,17,55,4.60
2009,03,16,17,56,4.50
2009,03,16,17,57,4.50
2009,03,16,17,58,4.50
2009,03,16,17,59,4.50
2009,03,16,18,00,4.50
2009,03,16,18,01,4.50
2009,03,16,18,02,4.40
2009,03,16,18,03,4.40
2009,03,16,18,04,4.40
2009,03,16,18,05,4.40
2009,03,16,18,06,4.40
2009,03,16,18,07,4.40
2009,03,16,18,08,4.40
2009,03,16,18,09,4.40
2009,03,16,18,10,4.40
2009,03,16,18,11,4.40
2009,03,16,18,12,4.40
2009,03,16,18,13,4.40
2009,03,16,18,14,4.40
2009,03,16,18,15,4.40
2009,03,16,18,16,4.40
2009,03,16,18,17,4.40
2009,03,16,18,18,4.40
2009,03,16,18,19,4.40
2009,03,16,18,20,4.40
2009,03,16,18,21,4.30
2009,03,16,18,22,4.40
2009,03,16,18,23,4.40
2009,03,16,18,24,4.40
2009,03,16,18,25,4.40
2009,03,16,18,26,4.40
2009,03,16,18,27,4.30
2009,03,16,18,28,4.30
2009,03,16,18,29,4.30
2009,03,16,18,30,4.30
2009,03,16,18,31,4.30
2009,03,16,18,32,4.30
2009,03,16,18,33,4.30
2009,03,16,18,34,4.30
2009,03,16,18,35,4.30
2009,03,16,18,36,4.20
2009,03,16,18,37,4.20
2009,03,16,18,38,4.20
2009,03,16,18,39,4.20
2009,03,16,18,40,4.20
2009,03,16,18,41,4.20
2009,03,16,18,42,4.20
2009,03,16,18,43,4.20
2009,03,16,18,44,4.20
2009,03,16,18,45,4.20
2009,03,16,18,46,4.20
2009,03,16,18,47,4.20
2009,03,16,18,48,4.20
2009,03,16,18,49,4.20
2009,03,16,18,50,4.20
2009,03,16,18,51,4.20
2009,03,16,18,52,4.20
2009,03,16,18,53,4.20
2009,03,16,18,54,4.20